When you browse on this site, cookies collect data to enhance your experience and personalize the content and advertising you see.
Visit our Privacy Policy to learn more. By continuing to use the site, you agree to this use of cookies and data.
  • In Hungary
  • List of Countries
  • For 7 days
  • Water Temperature
  • Satellite Maps
  • Weather Map
  • News
  • Weather Widgets
  • user-avatar
    Login

    Hourly Weather Taltal

    Today, 19 March, Tuesday

    Time Temperature Precipitation Wind Pressure Humidity
    00:00 +25°C° 0 mm 2 mps 758 mmHg 70%
    01:00 +24°C° 0 mm 2 mps 758 mmHg 73%
    02:00 +24°C° 0 mm 2 mps 758 mmHg 74%
    03:00 +23°C° 0 mm 1 mps 758 mmHg 76%
    04:00 +23°C° 0 mm 1 mps 757 mmHg 77%
    05:00 +24°C° 0 mm 1 mps 758 mmHg 70%
    06:00 +26°C° 0 mm 1 mps 758 mmHg 62%
    07:00 +27°C° 0 mm 1 mps 758 mmHg 54%
    08:00 +28°C° 0 mm 2 mps 758 mmHg 49%
    09:00 +30°C° 0 mm 3 mps 758 mmHg 43%
    10:00 +33°C° 0 mm 4 mps 758 mmHg 37%
    11:00 +33°C° 0 mm 4 mps 758 mmHg 37%
    12:00 +34°C° 0 mm 4 mps 757 mmHg 36%
    13:00 +34°C° 0 mm 4 mps 757 mmHg 36%
    14:00 +34°C° 0 mm 4 mps 756 mmHg 37%
    15:00 +33°C° 0 mm 3 mps 756 mmHg 38%
    16:00 +31°C° 0 mm 3 mps 756 mmHg 39%
    17:00 +30°C° 0 mm 3 mps 756 mmHg 44%
    18:00 +29°C° 0 mm 2 mps 756 mmHg 49%
    19:00 +28°C° 0 mm 2 mps 756 mmHg 53%
    20:00 +28°C° 0 mm 2 mps 756 mmHg 52%
    21:00 +27°C° 0 mm 2 mps 756 mmHg 51%
    22:00 +27°C° 0 mm 2 mps 756 mmHg 50%
    23:00 +26°C° 0 mm 2 mps 756 mmHg 51%

    Tomorrow, 20 March, Wednesday

    Time Temperature Precipitation Wind Pressure Humidity
    00:00 +26°C° 0 mm 2 mps 756 mmHg 52%
    01:00 +25°C° 0 mm 1 mps 756 mmHg 54%
    02:00 +25°C° 0 mm 1 mps 756 mmHg 56%
    03:00 +24°C° 0 mm 1 mps 756 mmHg 59%
    04:00 +23°C° 0 mm 1 mps 756 mmHg 61%
    05:00 +25°C° 0 mm 1 mps 756 mmHg 55%
    06:00 +26°C° 0 mm 1 mps 756 mmHg 49%
    07:00 +28°C° 0 mm 1 mps 757 mmHg 43%
    08:00 +29°C° 0 mm 2 mps 757 mmHg 40%
    09:00 +31°C° 0 mm 2 mps 757 mmHg 37%
    10:00 +33°C° 0 mm 3 mps 757 mmHg 33%
    11:00 +34°C° 0 mm 3 mps 757 mmHg 34%
    12:00 +34°C° 0 mm 3 mps 757 mmHg 34%
    13:00 +34°C° 0 mm 4 mps 756 mmHg 35%
    14:00 +34°C° 0 mm 3 mps 756 mmHg 38%
    15:00 +33°C° 0 mm 3 mps 756 mmHg 41%
    16:00 +31°C° 0 mm 3 mps 756 mmHg 44%
    17:00 +30°C° 0 mm 2 mps 756 mmHg 49%
    18:00 +29°C° 0 mm 2 mps 757 mmHg 53%
    19:00 +28°C° 0 mm 2 mps 757 mmHg 58%
    20:00 +27°C° 0 mm 1 mps 757 mmHg 59%
    21:00 +27°C° 0 mm 1 mps 757 mmHg 60%
    22:00 +26°C° 0 mm 1 mps 758 mmHg 61%
    23:00 +26°C° 0 mm 1 mps 757 mmHg 64%

    Day after tomorrow, 21 March, Thursday

    Time Temperature Precipitation Wind Pressure Humidity
    00:00 +25°C° 0 mm 1 mps 757 mmHg 67%
    01:00 +25°C° 0 mm 1 mps 757 mmHg 69%
    02:00 +24°C° 0 mm 1 mps 757 mmHg 71%
    03:00 +23°C° 0 mm 1 mps 757 mmHg 73%
    04:00 +23°C° 0 mm 1 mps 757 mmHg 75%
    05:00 +24°C° 0 mm 1 mps 757 mmHg 69%
    06:00 +25°C° 0 mm 1 mps 757 mmHg 62%
    07:00 +27°C° 0 mm 1 mps 758 mmHg 56%
    08:00 +28°C° 0 mm 1 mps 758 mmHg 50%
    09:00 +30°C° 0 mm 2 mps 758 mmHg 45%
    10:00 +33°C° 0 mm 3 mps 758 mmHg 40%
    11:00 +33°C° 0 mm 3 mps 758 mmHg 41%
    12:00 +33°C° 0 mm 3 mps 757 mmHg 41%
    13:00 +33°C° 0 mm 3 mps 757 mmHg 42%
    14:00 +33°C° 0 mm 3 mps 757 mmHg 44%
    15:00 +31°C° 0 mm 3 mps 756 mmHg 46%
    16:00 +30°C° 0 mm 3 mps 756 mmHg 49%
    17:00 +30°C° 0 mm 2 mps 756 mmHg 53%
    18:00 +29°C° 0 mm 2 mps 757 mmHg 57%
    19:00 +28°C° 0 mm 1 mps 757 mmHg 61%
    20:00 +27°C° 0 mm 1 mps 757 mmHg 61%
    21:00 +27°C° 0 mm 1 mps 757 mmHg 62%
    22:00 +27°C° 0 mm 1 mps 757 mmHg 62%
    23:00 +26°C° 0 mm 1 mps 757 mmHg 65%

    22 March, Friday

    Time Temperature Precipitation Wind Pressure Humidity
    00:00 +25°C° 0 mm 1 mps 757 mmHg 67%
    01:00 +25°C° 0 mm 1 mps 757 mmHg 70%
    02:00 +24°C° 0 mm 1 mps 757 mmHg 72%
    03:00 +24°C° 0 mm 1 mps 757 mmHg 74%
    04:00 +23°C° 0 mm 1 mps 757 mmHg 75%
    05:00 +24°C° 0 mm 1 mps 757 mmHg 70%
    06:00 +25°C° 0 mm 1 mps 758 mmHg 65%
    07:00 +26°C° 0 mm 1 mps 758 mmHg 60%
    08:00 +28°C° 0 mm 1 mps 758 mmHg 54%
    09:00 +30°C° 0 mm 2 mps 758 mmHg 48%
    10:00 +33°C° 0 mm 3 mps 758 mmHg 41%
    11:00 +33°C° 0 mm 3 mps 758 mmHg 42%
    12:00 +33°C° 0 mm 3 mps 757 mmHg 43%
    13:00 +33°C° 0 mm 3 mps 757 mmHg 44%
    14:00 +33°C° 0 mm 3 mps 756 mmHg 46%
    15:00 +31°C° 0 mm 3 mps 756 mmHg 47%
    16:00 +31°C° 0 mm 3 mps 756 mmHg 49%
    17:00 +30°C° 0 mm 2 mps 756 mmHg 54%
    18:00 +29°C° 0 mm 2 mps 756 mmHg 58%
    19:00 +28°C° 0 mm 1 mps 757 mmHg 62%
    20:00 +28°C° 0 mm 1 mps 757 mmHg 62%
    21:00 +27°C° 0 mm 1 mps 757 mmHg 62%
    22:00 +27°C° 0 mm 1 mps 757 mmHg 62%
    23:00 +26°C° 0 mm 1 mps 757 mmHg 64%

    23 March, Saturday

    Time Temperature Precipitation Wind Pressure Humidity
    00:00 +26°C° 0 mm 1 mps 757 mmHg 65%
    01:00 +25°C° 0 mm 1 mps 757 mmHg 67%
    02:00 +25°C° 0 mm 1 mps 757 mmHg 67%
    03:00 +24°C° 0 mm 1 mps 756 mmHg 68%
    04:00 +24°C° 0 mm 1 mps 756 mmHg 69%
    05:00 +25°C° 0 mm 1 mps 757 mmHg 63%
    06:00 +27°C° 0 mm 1 mps 757 mmHg 57%
    07:00 +28°C° 0 mm 1 mps 758 mmHg 51%
    08:00 +29°C° 0 mm 2 mps 758 mmHg 48%
    09:00 +31°C° 0 mm 3 mps 758 mmHg 44%
    10:00 +33°C° 0 mm 3 mps 758 mmHg 40%
    11:00 +33°C° 0 mm 3 mps 758 mmHg 40%
    12:00 +34°C° 0 mm 3 mps 757 mmHg 40%
    13:00 +34°C° 0 mm 4 mps 757 mmHg 41%
    14:00 +33°C° 0 mm 3 mps 757 mmHg 42%
    15:00 +33°C° 0 mm 3 mps 757 mmHg 44%
    16:00 +31°C° 0 mm 3 mps 756 mmHg 45%
    17:00 +30°C° 0 mm 2 mps 757 mmHg 48%
    18:00 +29°C° 0 mm 2 mps 757 mmHg 50%
    19:00 +28°C° 0 mm 2 mps 757 mmHg 53%
    20:00 +28°C° 0 mm 2 mps 757 mmHg 52%
    21:00 +28°C° 0 mm 2 mps 757 mmHg 52%
    22:00 +27°C° 0 mm 2 mps 757 mmHg 51%
    23:00 +27°C° 0 mm 1 mps 757 mmHg 54%

    24 March, Sunday

    Time Temperature Precipitation Wind Pressure Humidity
    00:00 +26°C° 0 mm 1 mps 757 mmHg 56%
    01:00 +26°C° 0 mm 1 mps 757 mmHg 59%
    02:00 +25°C° 0 mm 1 mps 757 mmHg 62%
    03:00 +25°C° 0 mm 1 mps 757 mmHg 65%
    04:00 +24°C° 0 mm 1 mps 757 mmHg 67%
    05:00 +25°C° 0 mm 1 mps 757 mmHg 62%
    06:00 +26°C° 0 mm 1 mps 757 mmHg 57%
    07:00 +28°C° 0 mm 1 mps 758 mmHg 52%
    08:00 +29°C° 0 mm 2 mps 758 mmHg 47%
    09:00 +31°C° 0 mm 3 mps 757 mmHg 42%
    10:00 +33°C° 0 mm 3 mps 757 mmHg 37%
    11:00 +34°C° 0 mm 4 mps 757 mmHg 36%
    12:00 +34°C° 0 mm 4 mps 756 mmHg 34%
    13:00 +35°C° 0 mm 4 mps 756 mmHg 33%
    14:00 +34°C° 0 mm 4 mps 756 mmHg 33%
    15:00 +34°C° 0 mm 4 mps 755 mmHg 33%
    16:00 +33°C° 0 mm 4 mps 755 mmHg 33%
    17:00 +31°C° 0 mm 3 mps 756 mmHg 37%
    18:00 +30°C° 0 mm 2 mps 756 mmHg 40%
    19:00 +28°C° 0 mm 1 mps 756 mmHg 44%
    20:00 +28°C° 0 mm 2 mps 757 mmHg 44%
    21:00 +27°C° 0 mm 2 mps 757 mmHg 45%
    22:00 +27°C° 0 mm 2 mps 757 mmHg 45%
    23:00 +26°C° 0 mm 1 mps 757 mmHg 47%
    Show more